Location: Monrovia
(34.7865°N, 86.7139°W)
Time: 15:20:36
(UTC+00:00)

Meteor 2-4 Rocket - Pass Details

Date: 14 July 2020
Orbit: 799 x 908 km, 81.2° (Epoch: 12 August)

Event Time Altitude Azimuth Distance (km) Brightness Sun altitude
Rises 07:05:41 0° 358° (N) 3,541 7.9 -31.0°
Reaches altitude 10° 07:08:17 10° 4° (N) 2,592 7.1 -30.8°
Maximum altitude 07:13:59 47° 78° (ENE) 1,174 4.5 -30.4°
Enters shadow 07:14:40 45° 98° (E) 1,205 4.5 -30.4°
